Regional Weather Roundup
Issued by NWS

Home | Current Version | Previous Version | Graphics & Text | Print | Product List | Glossary On
Versions: 1 2 3 4 5 6 7 8 9 10 11 12 13 14 15 16 17 18 19 20 21 22 23 24 25 26 27 28 29 30 31 32 33 34 35 36 37 38 39 40 41 42 43 44 45 46 47 48 49 50
000
ASUS43 KMPX 280601
RWRMN
WEATHER ROUNDUP FOR MINNESOTA
NATIONAL WEATHER SERVICE TWIN CITIES/CHANHASSEN MN
100 AM CDT THU AUG 28 2014


NOTE: "FAIR" INDICATES FEW OR NO CLOUDS BELOW 12,000 FEET WITH NO
SIGNIFICANT WEATHER AND/OR OBSTRUCTIONS TO VISIBILITY. N/A MEANS
CURRENT SKY AND/OR WEATHER CONDITIONS ARE NOT AVAILABLE.

MNZ060>063-068>070-280700-
   Twin Cities Metro

CITY           SKY/WX    TMP DP  RH WIND       PRES   REMARKS
TWIN CITIES    FAIR      65  58  78 E8        30.13F
6HR MIN TEMP:  65; 6HR MAX TEMP:  74;

ST PAUL        FAIR      65  58  78 CALM      30.14F
CRYSTAL        FAIR      65  56  72 E5        30.12F
BLAINE         FAIR      63  57  82 E5        30.14S
LAKEVILLE      FAIR      55  55 100 CALM      30.14S
EDEN PRAIRIE   FAIR      65  58  78 E6        30.12F
6HR MIN TEMP:  64; 6HR MAX TEMP:  76;

SOUTH ST PAUL  FAIR      64  57  76 CALM      30.14S
LAKE ELMO      CLOUDY    61  55  82 CALM      30.16S
$$
MNZ001>005-007-008-013>017-022>024-027-028-280700-
   Northwest Minnesota

CITY           SKY/WX    TMP DP  RH WIND       PRES   REMARKS
BEMIDJI        FAIR      55  53  96 S3        30.11F
HALLOCK        FAIR      54  52  94 SE7       30.03F
ROSEAU         FAIR      54  48  82 SE5       30.07F
WARROAD        FAIR      55  52  88 S7        30.08F
THIEF RVR FALL FAIR      55  54  94 SE6       30.08S
CROOKSTON      FAIR      57  55  94 SE8       30.06F
FOSSTON        FAIR      57  52  82 SE6       30.09F
DETROIT LAKES  FAIR      63  59  88 SE7       30.11S
MOORHEAD       MOCLDY    64  63  94 SE5       30.06F
PARK RAPIDS    FAIR      58  56  93 SE6       30.11F
MAHNOMEN       FAIR      58  56  93 SE6       30.09F
$$
MNZ006-009>011-018-025>026-280700-
   North Central Minnesota

CITY           SKY/WX    TMP DP  RH WIND       PRES   REMARKS
BAUDETTE       FAIR      53  50  89 CALM      30.09F
FLAG ISLAND    FAIR      66  57  72 S12       30.06F
INTL FALLS     FAIR      45  45 100 CALM      30.11F
6HR MIN TEMP:  44; 6HR MAX TEMP:  68;

WASKISH        FAIR      52  52 100 CALM      30.10F
BIG FORK       FAIR      46  45  93 CALM      30.14S FOG
LONGVILLE      FAIR      50  50 100 CALM      30.13S
GRAND RAPIDS   FAIR      52  48  87 CALM      30.14S
CRANE LAKE     FAIR      45  43  93 CALM      30.14S
ORR            FAIR      48  46  93 CALM      30.11S
COOK           FAIR      46  45  93 CALM      30.14S
WALKER         FAIR      54  52  95 CALM      30.12F
$$
MNZ012-019>021-037-280700-
   Northeast Minnesota

CITY           SKY/WX    TMP DP  RH WIND       PRES   REMARKS
DULUTH         FAIR      57  52  83 CALM      30.15R
6HR MIN TEMP:  57; 6HR MAX TEMP:  69;

ELY            FAIR      50  46  87 CALM      30.14S
HIBBING        FOG       48  46  93 SW5       30.14S VSB 3/4
EVELETH        FOG       45  45 100 CALM      30.15S VSB 1/2
DULUTH HARBOR  FAIR      61  55  82 S7        30.15S
TWO HARBORS    MOCLDY    50  45  81 CALM      30.14R
SILVER BAY     FAIR      45  45 100 CALM      30.14S
GRAND MARAIS     N/A     56  50  80 CALM      30.15R
G MARAIS ARPRT MOCLDY    48  45  87 CALM      30.17S
$$
MNZ029>031-032-039>041-046>048-054>057-064-280700-
   West Central Minnesota

CITY           SKY/WX    TMP DP  RH WIND       PRES   REMARKS
FERGUS FALLS   FAIR      64  57  77 SE7       30.08S
WHEATON        MOCLDY    61  57  88 SE7       30.08S
MORRIS         CLOUDY    64  61  88 SE7       30.08S
ALEXANDRIA     FAIR      62  57  83 SE9       30.12F
ELBOW LAKE     FAIR      63  59  88 SE8       30.08S
WADENA         FAIR      57  55  94 SE7       30.11F
GLENWOOD       FAIR      61  57  88 E6        30.12F
APPLETON       FAIR      64  57  77 SE7       30.08S
BENSON         CLOUDY    63  59  88 SE5       30.10S
ORTONVILLE     MOCLDY    64  57  77 SE8       30.08S
MADISON        MOCLDY    66  61  82 SE8       30.08F
WILLMAR        FAIR      63  57  82 E5        30.13R
$$
MNZ033>034-036-042>043-049>051-058-059-280700-
   Central Minnesota

CITY           SKY/WX    TMP DP  RH WIND       PRES   REMARKS
ST CLOUD       FAIR      61  56  83 E3        30.13S
6HR MIN TEMP:  61; 6HR MAX TEMP:  73;

SAUK CENTRE    FAIR      59  57  93 E5        30.12F
PAYNESVILLE    FAIR      60  57  88 E3        30.13S
AITKIN         FAIR      55  50  82 CALM      30.13S
PINE RIVER     FAIR      52  52 100 CALM      30.16F
BRAINERD       CLOUDY    58  57  97 CALM      30.14F
STAPLES        FAIR      57  55  94 SE3       30.13S
LONG PRAIRIE   MOCLDY    59  55  88 E5        30.13S
LITTLE FALLS   FAIR      57  54  88 CALM      30.13F
LITCHFIELD     CLOUDY    63  63 100 SE3       30.13S
BUFFALO        FAIR      62  55  78 E5        30.14S
MAPLE LAKE     FAIR      64  59  83 E5        30.14S
$$
MNZ037-044-045-052-053-280700-
   East Central Minnesota

CITY           SKY/WX    TMP DP  RH WIND       PRES   REMARKS
PRINCETON      MOCLDY    61  57  88 E3        30.14S
MORA           FAIR      55  54  94 CALM      30.16S
CAMBRIDGE      FAIR      64  54  68 CALM      30.13S
RUSH CITY      CLOUDY    58  56  91 CALM      30.15R
MOOSE LAKE     FAIR      50  48  93 CALM      30.13F FOG
HINCKLEY       FAIR      54  54 100 CALM      30.15S
CLOQUET        FAIR      52  50  93 SW3       30.15S
MCGREGOR         N/A     52  50  93 CALM      30.15S VSB 3/4
$$
MNZ071>073-080-081-089-090-097-098-280700-
   Southwest Minnesota

CITY           SKY/WX    TMP DP  RH WIND       PRES   REMARKS
MONTEVIDEO     CLOUDY    63  61  94 S6        30.11S
GRANITE FALLS  FAIR      63  58  82 SE8       30.11S
CANBY          CLOUDY    63  60  91 SE6       30.09F
MARSHALL       CLOUDY    64  57  77 SE8       30.09F
REDWOOD FALLS  FAIR      62  58  86 SE6       30.10F
OLIVIA         FAIR      63  55  77 SE3       30.11S
PIPESTONE      CLOUDY    66  63  88 SE6       30.09F
WINDOM         FAIR      63  59  88 SE6       30.12S
WORTHINGTON    CLOUDY    64  63  94 SE3       30.12S
JACKSON        MOCLDY    63  59  88 E6        30.12S
TRACY          CLOUDY    65  61  85 SE5       30.11S
SLAYTON        CLOUDY    64  61  88 CALM      30.11F
$$
MNZ065>067-074>077-082>085-091>093-280700-
   South Central Minnesota

CITY           SKY/WX    TMP DP  RH WIND       PRES   REMARKS
MANKATO        FAIR      63  55  77 SE8       30.12F
NEW ULM        CLOUDY    64  61  88 SE6       30.12S
ST JAMES       FAIR      63  59  88 E5        30.12F
FAIRMONT       CLOUDY    63  57  82 E7        30.11F
GLENCOE        FAIR      61  56  83 CALM      30.12S
FARIBAULT      FAIR      64  55  72 SE5       30.14S
OWATONNA       FAIR      61  57  88 SE3       30.14F
WASECA         FAIR      59  54  82 E6        30.15F
ALBERT LEA     FAIR      63  57  82 SE6       30.14S
$$
MNZ078>079-086>088-094>096-280700-
   Southeast Minnesota

CITY           SKY/WX    TMP DP  RH WIND       PRES   REMARKS
ROCHESTER      FAIR      59  56  89 SE3       30.16S
6HR MIN TEMP:  59; 6HR MAX TEMP:  70;

RED WING       FAIR      63  57  82 CALM      30.14S
STANTON        FAIR      58  56  92 CALM      30.13S
DODGE CENTER   FAIR      61  59  94 CALM      30.16S
WINONA         FAIR      61  59  94 CALM      30.16R
AUSTIN         FAIR      57  55  94 CALM      30.14F
PRESTON        FAIR      59  59 100 CALM      30.16F
$$
ABBREVIATIONS USED IN REMARKS
   TC - TEMPERATURES IN CELSIUS
  WCI - WIND CHILL INDEX
   HX - HEAT INDEX
  VSB - VISIBILITY
$$


USA.gov is the U.S. government's official web portal to all federal, state and local government web resources and services.